Simultaneous Nadir Overpasses (SNOs) Predictions

Prediction of SNOs between GOES-16 and TERRA Satellite Orbit:

Table of predicted SNOs for the next 14.0 days since TLE Epoch: 5/4/2024
Index Date Time (GOES-16) GOES-16 Lat,Lon TERRA Lat,Lon Distance(km) Time Diff (sec)
1 05/05/2024 14:44:16 0.05, -75.21 -0.31, -73.40 206.18 80
2 05/06/2024 03:04:23 -0.05, -75.21 -0.72, -78.29 350.57 80
3 05/08/2024 02:44:30 -0.05, -75.22 0.18, -74.14 122.93 80
4 05/08/2024 15:04:27 0.04, -75.24 0.84, -78.99 426.85 80
5 05/10/2024 14:49:53 0.04, -75.25 -0.02, -74.83 47.26 80
6 05/13/2024 02:52:46 -0.03, -75.27 -0.12, -75.57 34.60 80
7 05/15/2024 02:32:52 -0.02, -75.31 0.78, -71.42 441.43 80
8 05/15/2024 14:52:49 0.02, -75.33 0.22, -76.27 107.62 80
9 05/17/2024 14:38:14 0.02, -75.37 -0.65, -72.11 369.62 80
